Costa Fascinosa — ICPO — position and weather

sailwx.info

Track history (hours):
 
Tides and Currents Weather Stations Pressure Air Temp Water Temp Dewpoint Dewpoint Depression Visibility Wind Speed Wind Dir Waves Ship Positions

Costa Fascinosa

Last reported at 2017-Nov-19 22:07 UTC. Time now 2017-Nov-20 04:00 UTC.
Position N 43°10' E 006°60'.

Length 291 m; draft 8.3 m.

Type: Passenger vessel. MMSI: 247313500.

Date/timePositionNaut miles runAvg speedWind from/ knotsBaromVisibWave heightAir tempDewpointWater temp
2017-Nov-19 22:07N 43°10' E 006°60'219.8
2017-Nov-19 22:00N 43°12' E 007°03'1019.6
2017-Nov-19 21:29N 43°18' E 007°13'1019.6
2017-Nov-19 21:00N 43°24' E 007°24'1019.2
2017-Nov-19 20:30N 43°30' E 007°34'1219.5
2017-Nov-19 19:55N 43°37' E 007°46'1019.6
2017-Nov-19 19:25N 43°44' E 007°57'1919.3
2017-Nov-19 18:24N 43°57' E 008°16'819.5
2017-Nov-19 18:00N 44°03' E 008°23'1019.3
2017-Nov-19 17:30N 44°11' E 008°30'815.1
2017-Nov-19 17:01N 44°19' E 008°31'1 2.1
2017-Nov-19 16:30N 44°19' E 008°29'0 0.0
2017-Nov-19 15:57N 44°19' E 008°29'0 0.0
2017-Nov-19 15:27N 44°19' E 008°29'0 0.0
2017-Nov-19 14:57N 44°19' E 008°29'0 0.0
2017-Nov-19 14:30N 44°19' E 008°29'0 0.0
2017-Nov-19 14:00N 44°19' E 008°29'0 0.0
2017-Nov-19 13:30N 44°19' E 008°29'0 0.0
2017-Nov-19 13:00N 44°19' E 008°29'0 0.0
2017-Nov-19 12:30N 44°19' E 008°29'0 0.0
2017-Nov-19 12:00N 44°19' E 008°29'0 0.0
2017-Nov-19 11:30N 44°19' E 008°29'0 0.0
2017-Nov-19 11:00N 44°19' E 008°29'0 0.0
2017-Nov-19 10:30N 44°19' E 008°29'0 0.0
2017-Nov-19 10:00N 44°19' E 008°29'0 0.0
2017-Nov-19 09:30N 44°19' E 008°29'0 0.0
2017-Nov-19 09:00N 44°19' E 008°29'0 0.0
2017-Nov-19 08:30N 44°19' E 008°29'0 0.0
2017-Nov-19 08:00N 44°19' E 008°29'0 0.0
2017-Nov-19 07:30N 44°19' E 008°29'0 0.9
2017-Nov-19 07:00N 44°19' E 008°30'4 8.4
2017-Nov-19 06:30N 44°15' E 008°32'816.8
2017-Nov-19 06:00N 44°07' E 008°27'917.0
2017-Nov-19 05:30N 43°60' E 008°21'2817.1
2017-Nov-19 03:51N 43°39' E 007°54'917.2
2017-Nov-19 03:20N 43°34' E 007°44'617.4
2017-Nov-19 02:59N 43°31' E 007°37'817.3
2017-Nov-19 02:30N 43°26' E 007°28'917.1
2017-Nov-19 02:00N 43°21' E 007°18'612.9
2017-Nov-19 01:30N 43°17' E 007°11'612.4
2017-Nov-19 01:00N 43°13' E 007°04'1112.3
2017-Nov-19 00:05N 43°07' E 006°52'112.4
2017-Nov-18 23:58N 43°06' E 006°50'7111.1
2017-Nov-18 17:36N 43°08' E 005°13'212.4
2017-Nov-18 17:26N 43°10' E 005°11'511.4
2017-Nov-18 17:00N 43°15' E 005°11'611.9
2017-Nov-18 16:30N 43°19' E 005°15'4 0.6
2017-Nov-18 10:06N 43°21' E 005°20'0 0.0
2017-Nov-18 10:00N 43°21' E 005°20'0 0.0
2017-Nov-18 09:21N 43°21' E 005°20'0 0.0
2017-Nov-18 08:57N 43°21' E 005°20'0 0.0
2017-Nov-18 08:21N 43°21' E 005°20'0 0.0
2017-Nov-18 07:51N 43°21' E 005°20'0 0.0
2017-Nov-18 07:30N 43°21' E 005°20'2 3.1
2017-Nov-18 07:00N 43°21' E 005°18'611.5
2017-Nov-18 06:30N 43°17' E 005°12'179 7.9
2017-Nov-17 07:42N 41°19' E 002°10'2 8.5
2017-Nov-17 07:30N 41°17' E 002°11'5 9.3
2017-Nov-17 06:59N 41°14' E 002°16'5613.5
2017-Nov-17 02:51N 40°31' E 003°03'55316.7
2017-Nov-15 17:47N 36°26' E 013°37'517.3
2017-Nov-15 17:30N 36°24' E 013°42'917.2
2017-Nov-15 17:00N 36°20' E 013°52'917.4
2017-Nov-15 16:30N 36°16' E 014°01'917.6
2017-Nov-15 16:00N 36°12' E 014°11'917.5
2017-Nov-15 15:31N 36°08' E 014°20'917.5
2017-Nov-15 15:00N 36°02' E 014°29'815.1
2017-Nov-15 14:30N 35°55' E 014°32'2 3.7
2017-Nov-15 13:59N 35°53' E 014°31'0 0.0
2017-Nov-15 13:26N 35°53' E 014°31'0 0.0
2017-Nov-15 12:59N 35°53' E 014°31'0 0.0
2017-Nov-15 12:29N 35°53' E 014°31'0 0.0
2017-Nov-15 11:53N 35°53' E 014°31'0 0.0
2017-Nov-15 11:29N 35°53' E 014°31'0 0.0
2017-Nov-15 10:59N 35°53' E 014°31'0 0.0
2017-Nov-15 10:29N 35°53' E 014°31'0 0.0
2017-Nov-15 09:59N 35°53' E 014°31'0 0.0
2017-Nov-15 09:29N 35°53' E 014°31'0 0.0
2017-Nov-15 08:59N 35°53' E 014°31'0 0.0
2017-Nov-15 08:29N 35°53' E 014°31'0 0.0
2017-Nov-15 07:56N 35°53' E 014°31'0 0.0
2017-Nov-15 07:31N 35°53' E 014°31'2 3.0
2017-Nov-15 07:00N 35°54' E 014°32'510.5
2017-Nov-15 06:30N 35°59' E 014°34'816.0
2017-Nov-15 06:00N 36°06' E 014°27'917.7
2017-Nov-15 05:30N 36°11' E 014°19'917.7
2017-Nov-15 05:00N 36°16' E 014°10'917.8
2017-Nov-15 04:30N 36°21' E 014°01'918.4
2017-Nov-15 04:00N 36°26' E 013°51'11610.6
2017-Nov-14 17:02N 38°17' E 013°07'618.1
2017-Nov-14 16:43N 38°17' E 013°14'418.1
2017-Nov-14 16:29N 38°17' E 013°19'715.5
2017-Nov-14 16:00N 38°13' E 013°27'612.5
2017-Nov-14 15:31N 38°07' E 013°23'1 2.3
2017-Nov-14 14:58N 38°08' E 013°22'0 0.0
2017-Nov-14 14:28N 38°08' E 013°22'0 0.0
2017-Nov-14 13:58N 38°08' E 013°22'0 0.0
2017-Nov-14 13:19N 38°08' E 013°22'0 0.0
2017-Nov-14 12:49N 38°08' E 013°22'0 0.0
2017-Nov-14 12:19N 38°08' E 013°22'0 0.0
2017-Nov-14 11:34N 38°08' E 013°22'0 0.0
2017-Nov-14 11:22N 38°08' E 013°22'0 0.0
2017-Nov-14 10:52N 38°08' E 013°22'0 0.0
2017-Nov-14 10:22N 38°08' E 013°22'0 0.0
2017-Nov-14 09:52N 38°08' E 013°22'0 0.0
2017-Nov-14 09:22N 38°08' E 013°22'0 0.0
2017-Nov-14 08:52N 38°08' E 013°22'0 0.0
2017-Nov-14 08:22N 38°08' E 013°22'0 0.0
2017-Nov-14 07:55N 38°08' E 013°22'0 0.2
2017-Nov-14 07:30N 38°08' E 013°22'2 4.9
2017-Nov-14 07:00N 38°09' E 013°25'815.2
2017-Nov-14 06:30N 38°16' E 013°27'917.6
2017-Nov-14 06:00N 38°25' E 013°30'917.6
2017-Nov-14 05:30N 38°33' E 013°32'917.2
2017-Nov-14 05:00N 38°42' E 013°35'917.4
2017-Nov-14 04:30N 38°50' E 013°37'240 8.8
2017-Nov-13 01:09N 42°00' E 010°26'3519.3
2017-Nov-12 23:20N 42°25' E 009°51'3319.6
2017-Nov-12 21:40N 42°56' E 009°37'319.2
2017-Nov-12 21:30N 42°58' E 009°36'1019.0
2017-Nov-12 21:00N 43°06' E 009°29'919.1
2017-Nov-12 20:30N 43°12' E 009°18'1019.6
2017-Nov-12 20:01N 43°17' E 009°07'1020.3
2017-Nov-12 19:30N 43°22' E 008°55'1020.6
2017-Nov-12 19:00N 43°27' E 008°42'1020.1
2017-Nov-12 18:30N 43°31' E 008°30'918.2
2017-Nov-12 18:00N 43°40' E 008°26'1020.5
2017-Nov-12 17:30N 43°50' E 008°27'1020.4
2017-Nov-12 17:00N 44°00' E 008°29'1020.5
2017-Nov-12 16:31N 44°10' E 008°30'816.8
2017-Nov-12 16:00N 44°19' E 008°31'1 2.0
2017-Nov-12 15:29N 44°19' E 008°29'0 0.0
2017-Nov-12 14:59N 44°19' E 008°29'0 0.0
2017-Nov-12 14:29N 44°19' E 008°29'0 0.0
2017-Nov-12 13:59N 44°19' E 008°29'0 0.0
2017-Nov-12 13:29N 44°19' E 008°29'0 0.0
2017-Nov-12 12:59N 44°19' E 008°29'0 0.0
2017-Nov-12 12:29N 44°19' E 008°29'0 0.0
2017-Nov-12 11:59N 44°19' E 008°29'0 0.0
2017-Nov-12 11:28N 44°19' E 008°29'0 0.0
2017-Nov-12 10:58N 44°19' E 008°29'0 0.0
2017-Nov-12 10:28N 44°19' E 008°29'0 0.0
2017-Nov-12 09:58N 44°19' E 008°29'0 0.0
2017-Nov-12 09:28N 44°19' E 008°29'0 0.0
2017-Nov-12 08:58N 44°19' E 008°29'0 0.0
2017-Nov-12 08:28N 44°19' E 008°29'0 0.0
2017-Nov-12 07:58N 44°19' E 008°29'0 0.0
2017-Nov-12 07:29N 44°19' E 008°29'1 1.4
2017-Nov-12 07:01N 44°19' E 008°30'5 9.8
2017-Nov-12 06:30N 44°14' E 008°31'816.3
2017-Nov-12 06:00N 44°07' E 008°26'1017.0
2017-Nov-12 05:23N 43°58' E 008°18'3516.5
2017-Nov-12 03:17N 43°34' E 007°44'716.3
2017-Nov-12 02:51N 43°30' E 007°36'616.4
2017-Nov-12 02:30N 43°27' E 007°29'816.2
2017-Nov-12 02:00N 43°22' E 007°20'816.3
2017-Nov-12 01:30N 43°17' E 007°11'816.3
2017-Nov-12 01:00N 43°12' E 007°03'8311.0
2017-Nov-11 17:29N 43°09' E 005°09'612.3
2017-Nov-11 16:59N 43°15' E 005°09'612.4
2017-Nov-11 16:30N 43°19' E 005°15'4 0.5
2017-Nov-11 08:11N 43°21' E 005°20'0 0.0
2017-Nov-11 07:59N 43°21' E 005°20'1 0.9
2017-Nov-11 07:15N 43°21' E 005°19'3 8.3
2017-Nov-11 06:56N 43°20' E 005°16'610.0
2017-Nov-11 06:22N 43°16' E 005°10'813.1
2017-Nov-11 05:47N 43°09' E 005°06'171 7.7
2017-Nov-10 07:30N 41°19' E 002°10'611.5
2017-Nov-10 06:58N 41°13' E 002°13'612.5
2017-Nov-10 06:30N 41°08' E 002°16'  
Track history (hours):
 
Tides and Currents Weather Stations Pressure Air Temp Water Temp Dewpoint Dewpoint Depression Visibility Wind Speed Wind Dir Waves Ship Positions

Costa Fascinosa

Last reported at 2017-Nov-19 22:07 UTC. Time now 2017-Nov-20 04:00 UTC.
Position N 43°10' E 006°60'.

Length 291 m; draft 8.3 m.

Type: Passenger vessel. MMSI: 247313500.

Date/timePositionNaut miles runAvg speedWind from/ knotsBaromVisibWave heightAir tempDewpointWater temp
2017-Nov-19 22:07N 43°10' E 006°60'219.8
2017-Nov-19 22:00N 43°12' E 007°03'1019.6
2017-Nov-19 21:29N 43°18' E 007°13'1019.6
2017-Nov-19 21:00N 43°24' E 007°24'1019.2
2017-Nov-19 20:30N 43°30' E 007°34'1219.5
2017-Nov-19 19:55N 43°37' E 007°46'1019.6
2017-Nov-19 19:25N 43°44' E 007°57'1919.3
2017-Nov-19 18:24N 43°57' E 008°16'819.5
2017-Nov-19 18:00N 44°03' E 008°23'1019.3
2017-Nov-19 17:30N 44°11' E 008°30'815.1
2017-Nov-19 17:01N 44°19' E 008°31'1 2.1
2017-Nov-19 16:30N 44°19' E 008°29'0 0.0
2017-Nov-19 15:57N 44°19' E 008°29'0 0.0
2017-Nov-19 15:27N 44°19' E 008°29'0 0.0
2017-Nov-19 14:57N 44°19' E 008°29'0 0.0
2017-Nov-19 14:30N 44°19' E 008°29'0 0.0
2017-Nov-19 14:00N 44°19' E 008°29'0 0.0
2017-Nov-19 13:30N 44°19' E 008°29'0 0.0
2017-Nov-19 13:00N 44°19' E 008°29'0 0.0
2017-Nov-19 12:30N 44°19' E 008°29'0 0.0
2017-Nov-19 12:00N 44°19' E 008°29'0 0.0
2017-Nov-19 11:30N 44°19' E 008°29'0 0.0
2017-Nov-19 11:00N 44°19' E 008°29'0 0.0
2017-Nov-19 10:30N 44°19' E 008°29'0 0.0
2017-Nov-19 10:00N 44°19' E 008°29'0 0.0
2017-Nov-19 09:30N 44°19' E 008°29'0 0.0
2017-Nov-19 09:00N 44°19' E 008°29'0 0.0
2017-Nov-19 08:30N 44°19' E 008°29'0 0.0
2017-Nov-19 08:00N 44°19' E 008°29'0 0.0
2017-Nov-19 07:30N 44°19' E 008°29'0 0.9
2017-Nov-19 07:00N 44°19' E 008°30'4 8.4
2017-Nov-19 06:30N 44°15' E 008°32'816.8
2017-Nov-19 06:00N 44°07' E 008°27'917.0
2017-Nov-19 05:30N 43°60' E 008°21'2817.1
2017-Nov-19 03:51N 43°39' E 007°54'917.2
2017-Nov-19 03:20N 43°34' E 007°44'617.4
2017-Nov-19 02:59N 43°31' E 007°37'817.3
2017-Nov-19 02:30N 43°26' E 007°28'917.1
2017-Nov-19 02:00N 43°21' E 007°18'612.9
2017-Nov-19 01:30N 43°17' E 007°11'612.4
2017-Nov-19 01:00N 43°13' E 007°04'1112.3
2017-Nov-19 00:05N 43°07' E 006°52'112.4
2017-Nov-18 23:58N 43°06' E 006°50'7111.1
2017-Nov-18 17:36N 43°08' E 005°13'212.4
2017-Nov-18 17:26N 43°10' E 005°11'511.4
2017-Nov-18 17:00N 43°15' E 005°11'611.9
2017-Nov-18 16:30N 43°19' E 005°15'4 0.6
2017-Nov-18 10:06N 43°21' E 005°20'0 0.0
2017-Nov-18 10:00N 43°21' E 005°20'0 0.0
2017-Nov-18 09:21N 43°21' E 005°20'0 0.0
2017-Nov-18 08:57N 43°21' E 005°20'0 0.0
2017-Nov-18 08:21N 43°21' E 005°20'0 0.0
2017-Nov-18 07:51N 43°21' E 005°20'0 0.0
2017-Nov-18 07:30N 43°21' E 005°20'2 3.1
2017-Nov-18 07:00N 43°21' E 005°18'611.5
2017-Nov-18 06:30N 43°17' E 005°12'179 7.9
2017-Nov-17 07:42N 41°19' E 002°10'2 8.5
2017-Nov-17 07:30N 41°17' E 002°11'5 9.3
2017-Nov-17 06:59N 41°14' E 002°16'5613.5
2017-Nov-17 02:51N 40°31' E 003°03'55316.7
2017-Nov-15 17:47N 36°26' E 013°37'517.3
2017-Nov-15 17:30N 36°24' E 013°42'917.2
2017-Nov-15 17:00N 36°20' E 013°52'917.4
2017-Nov-15 16:30N 36°16' E 014°01'917.6
2017-Nov-15 16:00N 36°12' E 014°11'917.5
2017-Nov-15 15:31N 36°08' E 014°20'917.5
2017-Nov-15 15:00N 36°02' E 014°29'815.1
2017-Nov-15 14:30N 35°55' E 014°32'2 3.7
2017-Nov-15 13:59N 35°53' E 014°31'0 0.0
2017-Nov-15 13:26N 35°53' E 014°31'0 0.0
2017-Nov-15 12:59N 35°53' E 014°31'0 0.0
2017-Nov-15 12:29N 35°53' E 014°31'0 0.0
2017-Nov-15 11:53N 35°53' E 014°31'0 0.0
2017-Nov-15 11:29N 35°53' E 014°31'0 0.0
2017-Nov-15 10:59N 35°53' E 014°31'0 0.0
2017-Nov-15 10:29N 35°53' E 014°31'0 0.0
2017-Nov-15 09:59N 35°53' E 014°31'0 0.0
2017-Nov-15 09:29N 35°53' E 014°31'0 0.0
2017-Nov-15 08:59N 35°53' E 014°31'0 0.0
2017-Nov-15 08:29N 35°53' E 014°31'0 0.0
2017-Nov-15 07:56N 35°53' E 014°31'0 0.0
2017-Nov-15 07:31N 35°53' E 014°31'2 3.0
2017-Nov-15 07:00N 35°54' E 014°32'510.5
2017-Nov-15 06:30N 35°59' E 014°34'816.0
2017-Nov-15 06:00N 36°06' E 014°27'917.7
2017-Nov-15 05:30N 36°11' E 014°19'917.7
2017-Nov-15 05:00N 36°16' E 014°10'917.8
2017-Nov-15 04:30N 36°21' E 014°01'918.4
2017-Nov-15 04:00N 36°26' E 013°51'11610.6
2017-Nov-14 17:02N 38°17' E 013°07'618.1
2017-Nov-14 16:43N 38°17' E 013°14'418.1
2017-Nov-14 16:29N 38°17' E 013°19'715.5
2017-Nov-14 16:00N 38°13' E 013°27'612.5
2017-Nov-14 15:31N 38°07' E 013°23'1 2.3
2017-Nov-14 14:58N 38°08' E 013°22'0 0.0
2017-Nov-14 14:28N 38°08' E 013°22'0 0.0
2017-Nov-14 13:58N 38°08' E 013°22'0 0.0
2017-Nov-14 13:19N 38°08' E 013°22'0 0.0
2017-Nov-14 12:49N 38°08' E 013°22'0 0.0
2017-Nov-14 12:19N 38°08' E 013°22'0 0.0
2017-Nov-14 11:34N 38°08' E 013°22'0 0.0
2017-Nov-14 11:22N 38°08' E 013°22'0 0.0
2017-Nov-14 10:52N 38°08' E 013°22'0 0.0
2017-Nov-14 10:22N 38°08' E 013°22'0 0.0
2017-Nov-14 09:52N 38°08' E 013°22'0 0.0
2017-Nov-14 09:22N 38°08' E 013°22'0 0.0
2017-Nov-14 08:52N 38°08' E 013°22'0 0.0
2017-Nov-14 08:22N 38°08' E 013°22'0 0.0
2017-Nov-14 07:55N 38°08' E 013°22'0 0.2
2017-Nov-14 07:30N 38°08' E 013°22'2 4.9
2017-Nov-14 07:00N 38°09' E 013°25'815.2
2017-Nov-14 06:30N 38°16' E 013°27'917.6
2017-Nov-14 06:00N 38°25' E 013°30'917.6
2017-Nov-14 05:30N 38°33' E 013°32'917.2
2017-Nov-14 05:00N 38°42' E 013°35'917.4
2017-Nov-14 04:30N 38°50' E 013°37'240 8.8
2017-Nov-13 01:09N 42°00' E 010°26'3519.3
2017-Nov-12 23:20N 42°25' E 009°51'3319.6
2017-Nov-12 21:40N 42°56' E 009°37'319.2
2017-Nov-12 21:30N 42°58' E 009°36'1019.0
2017-Nov-12 21:00N 43°06' E 009°29'919.1
2017-Nov-12 20:30N 43°12' E 009°18'1019.6
2017-Nov-12 20:01N 43°17' E 009°07'1020.3
2017-Nov-12 19:30N 43°22' E 008°55'1020.6
2017-Nov-12 19:00N 43°27' E 008°42'1020.1
2017-Nov-12 18:30N 43°31' E 008°30'918.2
2017-Nov-12 18:00N 43°40' E 008°26'1020.5
2017-Nov-12 17:30N 43°50' E 008°27'1020.4
2017-Nov-12 17:00N 44°00' E 008°29'1020.5
2017-Nov-12 16:31N 44°10' E 008°30'816.8
2017-Nov-12 16:00N 44°19' E 008°31'1 2.0
2017-Nov-12 15:29N 44°19' E 008°29'0 0.0
2017-Nov-12 14:59N 44°19' E 008°29'0 0.0
2017-Nov-12 14:29N 44°19' E 008°29'0 0.0
2017-Nov-12 13:59N 44°19' E 008°29'0 0.0
2017-Nov-12 13:29N 44°19' E 008°29'0 0.0
2017-Nov-12 12:59N 44°19' E 008°29'0 0.0
2017-Nov-12 12:29N 44°19' E 008°29'0 0.0
2017-Nov-12 11:59N 44°19' E 008°29'0 0.0
2017-Nov-12 11:28N 44°19' E 008°29'0 0.0
2017-Nov-12 10:58N 44°19' E 008°29'0 0.0
2017-Nov-12 10:28N 44°19' E 008°29'0 0.0
2017-Nov-12 09:58N 44°19' E 008°29'0 0.0
2017-Nov-12 09:28N 44°19' E 008°29'0 0.0
2017-Nov-12 08:58N 44°19' E 008°29'0 0.0
2017-Nov-12 08:28N 44°19' E 008°29'0 0.0
2017-Nov-12 07:58N 44°19' E 008°29'0 0.0
2017-Nov-12 07:29N 44°19' E 008°29'1 1.4
2017-Nov-12 07:01N 44°19' E 008°30'5 9.8
2017-Nov-12 06:30N 44°14' E 008°31'816.3
2017-Nov-12 06:00N 44°07' E 008°26'1017.0
2017-Nov-12 05:23N 43°58' E 008°18'3516.5
2017-Nov-12 03:17N 43°34' E 007°44'716.3
2017-Nov-12 02:51N 43°30' E 007°36'616.4
2017-Nov-12 02:30N 43°27' E 007°29'816.2
2017-Nov-12 02:00N 43°22' E 007°20'816.3
2017-Nov-12 01:30N 43°17' E 007°11'816.3
2017-Nov-12 01:00N 43°12' E 007°03'8311.0
2017-Nov-11 17:29N 43°09' E 005°09'612.3
2017-Nov-11 16:59N 43°15' E 005°09'612.4
2017-Nov-11 16:30N 43°19' E 005°15'4 0.5
2017-Nov-11 08:11N 43°21' E 005°20'0 0.0
2017-Nov-11 07:59N 43°21' E 005°20'1 0.9
2017-Nov-11 07:15N 43°21' E 005°19'3 8.3
2017-Nov-11 06:56N 43°20' E 005°16'610.0
2017-Nov-11 06:22N 43°16' E 005°10'813.1
2017-Nov-11 05:47N 43°09' E 005°06'171 7.7
2017-Nov-10 07:30N 41°19' E 002°10'611.5
2017-Nov-10 06:58N 41°13' E 002°13'612.5
2017-Nov-10 06:30N 41°08' E 002°16'  

Dump ship's entire track history